SCP
0 0 0 0 0 0 0 0 0 0 0 0 0 0 0 0 0 0 0 0 0 0 0 0 0 0 0 0 0 0 0 0 0 0 0 0 0 0 0 0 0 0 0 0 0 0 0 0 0 0 0 0 0 0
0 0 0 0 0 0 0 0 0 0 0 0 0 0 0 0 0 0 0 0 0 0 0 0 0 0 0 0 0 0 0 0 0 0 0 0 0 0 0 0 0 0 0 0 0 0 0 0 0 0 0 0 0 0
0 0 0 0 0 0 0 0 0 0 0 0 0 0 0 0 0 0 0 0 0 0 0 0 0 0 0 0 0 0 0 0 0 0 0 0 0 0 0 0 0 0 0 0 0 0 0 0 0 0 0 0 0 0
0 0 0 0 0 0 0 0 0 0 0 0 0 0 0 0 0 0 0 0 0 0 0 0 0 0 0 0 0 0 0 0 0 0 0 0 0 0 0 0 0 0 0 0 0 0 0 0 0 0 0 0 0 0
0 0 0 0 0 0 0 0 0 0 0 0 0 0 0 0 0 0 0 0 0 0 0 0 0 0 0 0 0 0 0 0 0 0 0 0 0 0 0 0 0 0 0 0 0 0 0 0 0 0 0 0 0 0
0 0 0 0 0 0 0 0 0 0 0 0 0 0 0 0 0 0 0 0 0 0 0 0 0 0 0 0 0 0 0 0 0 0 0 0 0 0 0 0 0 0 0 0 0 0 0 0 0 0 0 0 0 0
0 0 0 0 0 0 0 0 0 0 0 0 0 0 0 0 0 0 0 0 0 0 0 0 0 0 0 0 0 0 0 0 0 0 0 0 0 0 0 0 0 0 0 0 0 0 0 0 0 0 0 0 0 0
0 0 0 0 0 0 0 0 0 0 0 0 0 0 0 0 0 0 0 0 0 0 0 0 0 0 0 0 0 0 0 0 0 0 0 0 0 0 0 0 0 0 0 0 0 0 0 0 0 0 0 0 0 0
0 0 0 0 0 0 0 0 0 0 0 0 0 0 0 0 0 0 0 0 0 0 0 0 0 0 0 0 0 0 0 0 0 0 0 0 0 0 0 0 0 0 0 0 0 0 0 0 0 0 0 0 0 0
0 0 0 0 0 0 -0 0 0 0 0 0 0 0 0 0 0 0 0 0 0 0 0 0 0 0 0 0 0 0 0 0 0 0 0 0 0 0 0 0 0 0 0 0 0 0 0 0 0 0 0 0 0 0
0 0 0 0 0 0 0 0 0 0 0 0 0 0 0 0 0 0 0 0 0 0 0 0 0 0 0 0 0 0 0 0 0 0 0 0 0 0 0 0 0 0 0 0 0 0 0 0 0 0 0 0 0 0
0 0 0 0 0 0 0 0 0 0 0 0 0 0 0 0 0 0 0 0 0 0 0 0 0 0 0 0 0 0 0 0 0 0 0 0 0 0 0 0 0 0 0 0 0 0 0 0 0 0 0 0 0 0
0 0 0 0 0 0 0 0 0 0 0 0 0 0 0 0 0 0 0 0 0 0 0 0 0 0 0 0 0 0 0 0 0 0 0 0 0 0 0 0 0 0 0 0 0 0 0 0 0 0 0 0 0 0
0 0 0 0 0 0 0 0 0 0 0 0 0 0 0 0 0 0 0 0 0 0 0 0 0 0 0 0 0 0 0 0 0 0 0 0 0 0 0 0 0 0 0 0 0 0 0 0 0 0 0 0 0 0
0 0 0 0 0 0 0 0 0 0 0 0 0 0 0 0 0 0 0 0 0 0 0 0 0 0 0 0 0 0 0 0 0 0 0 0 0 0 0 0 0 0 0 0 0 0 0 0 0 0 0 0 0 0
0 0 0 0 0 0 0 0 0 0 0 0 0 0 0 0 0 0 0 0 0 0 0 0 0 0 0 0 0 0 0 0 0 0 0 0 0 0 0 0 0 0 0 0 0 0 0 0 0 0 0 0 0 0
0 0 0 0 0 0 0 0 0 0 0 0 0 0 0 0 0 0 0 0 0 0 0 0 0 0 0 0 0 0 0 0 0 0 0 0 0 0 0 0 0 0 0 0 0 0 0 0 0 0 0 0 0 0
0 0 0 0 0 0 0 0 0 0 0 0 0 0 0 0 0 0 0 0 0 0 0 0 0 0 0 0 0 0 0 0 0 0 0 0 0 0 0 0 0 0 0 0 0 0 0 0 0 0 0 0 0 0
0 0 0 0 0 0 0 0 0 0 0 0 0 0 0 0 0 0 0 0 0 0 0 0 0 0 0 0 0 0 0 0 0 0 0 0 0 0 0 0 0 0 0 0 0 0 0 0 0 0 0 0 0 0
0 0 0 0 0 0 0 0 0 0 0 0 0 0 0 0 0 0 0 0 0 0 0 0 0 0 0 0 0 0 0 0 0 0 0 0 0 0 0 0 0 0 0 0 0 0 0 0 0 0 0 0 0 0
0 0 0 0 0 0 0 0 0 0 0 0 0 0 0 0 0 0 0 0 0 0 0 0 0 0 0 0 0 0 0 0 0 0 0 0 0 0 0 0 0 0 0 0 0 0 0 0 0 0 0 -0 -0 0
0 0 0 0 0 0 0 0 0 0 0 0 0 0 0 0 0 0 0 0 0 0 0 0 0 0 0 0 0 0 0 0 0 0 0 0 0 0 0 0 0 0 0 0 0 0 0 0 0 -0 -0 0 0 0
0 0 0 0 0 0 0 0 0 0 0 0 0 0 0 0 0 0 0 0 0 0 0 0 0 0 0 0 0 0 0 0 0 0 0 0 0 0 0 0 0 0 0 0 0 0 0 0 -0 -0 -0 0 0 0
-0 0 0 0 0 0 0 0 0 0 0 0 0 0 0 0 0 0 0 0 0 0 0 0 0 0 0 0 0 0 0 0 0 0 0 0 0 0 0 0 0 0 0 0 0 0 0 -0 -0 -0 0 0 0 0
-0 0 0 0 0 0 0 0 0 0 0 0 0 0 0 0 0 0 0 0 0 0 0 0 0 0 0 0 0 0 0 0 0 0 0 0 0 0 0 0 0 0 0 0 0 0 0 0 0 0 0 0 0 0
-0 0 0 0 0 0 0 0 0 0 0 0 0 0 0 0 0 0 0 0 0 0 0 0 0 0 0 0 0 0 0 0 0 0 0 0 0 0 0 0 0 0 0 0 0 0 0 0 0 0 0 0 0 0
-0 0 0 0 0 0 0 0 0 0 0 0 0 0 0 0 0 0 0 0 0 0 0 0 0 0 0 0 0 0 0 0 0 0 0 0 0 0 0 0 0 0 0 0 0 0 0 0 0 0 0 0 0 0
0 0 0 0 0 0 0 0 0 0 0 0 0 0 0 0 0 0 0 0 0 0 0 0 0 0 0 0 0 0 0 0 0 0 0 0 0 0 0 0 0 0 0 0 0 0 0 0 0 0 0 0 0 0
0 0 0 0 0 0 0 0 0 0 0 0 0 0 0 0 0 0 0 0 0 0 0 0 0 0 0 0 0 0 0 0 0 0 0 0 0 0 0 0 0 0 0 0 0 0 0 0 0 0 0 0 0 0
-0 -0 0 0 0 0 0 0 0 0 0 0 0 0 0 0 0 0 0 0 0 0 0 0 0 0 0 0 0 0 0 0 0 0 0 0 0 0 0 0 0 0 0 0 0 0 0 0 0 0 0 0 0 0
-0 0 0 0 0 0 0 0 0 0 0 0 0 0 0 0 0 0 0 0 0 0 0 0 0 0 0 0 0 0 0 0 0 0 0 0 0 0 0 0 0 0 0 0 0 0 0 0 0 0 0 0 0 0
0 0 0 0 0 0 0 0 0 0 0 0 0 0 0 0 0 0 0 0 0 0 0 0 0 0 0 0 0 0 0 0 0 0 0 0 0 0 0 0 0 0 0 0 0 0 0 0 0 0 0 0 0 0
0 0 0 0 0 0 0 0 0 0 0 0 0 0 0 0 0 0 0 0 0 0 0 0 0 0 0 0 0 0 0 0 0 0 0 0 0 0 0 0 0 0 0 0 0 0 0 0 0 0 0 0 0 0
Wind_Speed_500mb
52 52 49 47 50 49 48 48 44 48 51 47 51 51 46 54 49 49 48 41 38 16 19 33 27 17 20 27 10 17 12 6 11 12 10 10 11 14 12 21 16 17 14 12 9 12 24 8 11 12 6 5 15 33
47 37 42 55 51 50 49 52 53 55 63 60 59 58 59 58 50 51 54 61 56 36 17 33 50 40 40 29 23 33 6 12 21 11 10 8 8 8 15 14 16 14 19 13 15 12 8 24 26 34 37 42 53 54
58 57 53 49 42 53 55 57 58 60 57 58 61 62 58 67 65 59 62 41 36 46 42 55 56 63 57 55 45 25 20 24 17 23 12 10 17 12 15 20 28 31 43 24 23 31 51 60 63 63 57 58 59 54
51 52 50 51 56 59 51 50 55 56 57 60 57 60 61 58 57 63 64 62 62 22 11 24 31 46 51 55 66 65 55 30 38 31 25 13 13 23 20 23 22 28 12 23 27 43 52 59 61 63 60 57 54 43
56 56 55 53 53 51 50 54 57 54 57 56 59 66 64 64 63 60 60 73 74 55 7 20 43 49 35 37 45 55 64 59 26 17 12 13 26 15 19 17 21 47 41 25 29 52 44 52 57 51 46 55 53 49
51 52 53 52 51 52 54 54 54 56 59 56 56 56 59 62 62 51 41 71 72 78 17 7 19 32 40 45 49 47 57 62 47 23 15 23 45 23 10 19 53 71 63 63 54 71 70 74 68 61 55 53 48 53
49 50 51 52 55 56 60 57 57 58 56 58 55 55 52 50 53 60 16 18 39 73 17 6 8 23 30 27 28 41 47 39 37 24 21 37 34 38 11 31 47 63 59 60 64 65 62 68 53 46 46 47 45 43
37 37 40 45 48 51 49 55 55 55 55 54 53 52 52 54 55 68 75 61 18 59 20 7 7 6 20 15 17 26 23 33 24 20 19 21 25 27 15 34 63 70 74 64 63 58 57 58 52 55 47 45 43 41
38 40 44 47 45 44 43 45 48 48 48 46 49 48 48 57 50 61 67 63 67 42 10 13 14 12 22 18 17 17 18 9 15 13 21 19 15 16 25 46 56 65 58 59 54 56 48 45 45 47 43 41 40 39
40 42 45 49 50 43 42 40 40 42 41 39 39 30 21 44 56 33 28 36 54 36 28 11 37 14 29 25 20 15 15 8 9 15 18 11 24 56 70 66 49 50 50 48 40 35 35 39 39 40 37 35 33 33
44 43 45 38 40 43 44 42 40 34 31 40 24 27 15 20 46 26 18 19 18 11 23 22 39 14 25 10 11 22 7 8 8 10 13 10 13 32 61 58 61 63 54 45 40 38 35 33 27 30 30 30 32 34
34 33 35 37 36 37 36 36 41 43 45 31 21 31 32 25 16 13 11 10 11 12 17 15 26 46 20 15 9 15 8 10 12 4 8 8 15 35 32 42 48 46 44 39 35 33 30 28 26 26 26 29 32 34
32 33 36 39 41 41 41 43 42 44 45 47 27 16 14 18 16 13 21 10 12 12 20 20 11 26 14 18 9 10 16 11 8 7 7 8 7 23 33 37 34 31 30 30 28 27 25 24 22 24 25 29 34 38
17 19 31 38 43 47 44 43 49 42 42 24 15 18 14 9 14 11 12 16 14 24 41 41 18 10 14 13 8 9 6 8 10 10 15 14 32 32 29 27 28 25 23 21 20 20 20 21 22 24 28 33 38 40
20 26 29 32 37 40 42 42 42 51 28 19 17 14 14 6 4 10 14 8 19 32 47 16 9 16 7 9 10 8 11 11 13 12 15 9 21 25 26 24 21 19 18 17 17 17 19 22 25 25 29 34 38 41
23 22 22 24 30 38 39 40 39 52 25 12 5 1 6 6 7 5 15 12 26 31 30 12 8 9 12 9 15 14 12 14 12 7 8 14 20 22 21 20 20 19 17 14 15 18 20 23 25 28 28 32 34 36
23 13 24 23 18 32 30 35 32 21 9 10 5 7 7 9 8 12 17 11 32 28 7 7 15 14 10 8 11 10 12 16 5 9 13 18 23 25 25 23 21 18 14 13 14 15 18 20 23 26 27 26 27 27
12 17 20 17 20 35 27 22 2 6 5 5 2 4 2 1 3 0 8 19 26 12 9 5 7 10 10 11 8 7 6 9 8 11 15 20 22 23 21 19 18 14 11 10 10 12 13 16 18 20 21 21 19 17
16 13 5 19 21 14 13 8 6 6 4 2 3 5 3 4 7 11 12 28 15 15 11 13 7 6 6 1 5 3 9 14 16 19 22 23 23 21 17 14 12 10 8 6 5 6 8 9 12 15 16 14 13 13
17 18 17 17 22 11 8 6 5 6 5 6 7 7 7 1 1 4 10 16 11 6 5 5 2 4 4 3 3 4 11 19 23 28 21 22 21 18 16 14 11 9 7 5 2 2 6 9 11 12 12 11 11 10
18 20 13 15 7 10 11 6 9 7 6 7 5 5 3 5 3 5 4 5 4 3 2 1 5 4 6 8 11 16 23 26 22 14 13 22 23 20 16 14 13 11 9 6 3 1 4 7 9 10 10 10 10 10
13 14 10 7 8 9 13 11 9 7 6 7 5 5 5 3 4 4 2 3 3 3 3 2 6 15 16 15 15 17 19 14 11 7 6 9 22 21 20 18 16 12 8 5 4 5 6 7 8 9 10 11 12 12
18 12 8 9 8 10 6 7 4 5 3 4 5 4 3 2 2 3 1 1 1 4 4 4 9 12 10 11 10 11 11 10 9 9 11 14 16 19 19 16 13 9 7 6 6 6 6 6 6 8 10 12 14 16
14 9 12 11 15 5 4 7 6 6 5 3 3 5 3 4 8 2 2 4 7 8 4 7 10 8 8 9 9 9 9 9 12 15 18 20 19 17 13 10 8 8 9 7 6 5 3 3 5 7 10 13 16 18
7 18 13 11 13 5 7 5 6 4 4 3 2 2 3 8 0 2 3 5 11 4 3 7 9 6 6 7 8 10 14 16 18 19 20 18 14 11 10 9 8 8 8 8 6 4 3 4 7 10 14 17 20 21
15 17 11 8 8 6 5 3 4 3 2 3 5 3 4 1 1 2 4 15 13 11 3 1 4 2 4 9 13 18 21 22 20 15 12 11 10 10 10 11 10 10 9 9 9 7 7 9 12 16 18 20 23 26
10 9 12 13 5 3 3 3 1 1 5 4 3 2 2 5 3 3 11 14 10 7 2 7 10 10 14 21 23 22 20 16 11 8 7 6 7 9 11 11 10 10 9 8 9 10 12 15 19 22 24 23 24 28
8 16 6 16 7 9 3 4 6 6 4 5 3 5 4 3 1 6 7 10 9 3 11 18 20 22 23 20 17 13 11 10 8 3 2 4 4 6 8 9 9 9 9 9 12 15 18 21 24 27 29 31 30 31
9 21 11 7 4 8 7 6 3 4 5 4 3 3 3 4 7 9 9 8 3 7 13 17 18 18 17 14 11 9 7 5 2 1 3 4 4 5 4 3 4 7 9 12 15 19 23 26 28 31 34 37 39 42
12 24 8 7 4 6 5 6 4 7 4 4 3 3 5 9 21 18 9 3 2 8 14 16 17 16 11 8 7 6 4 5 7 9 12 11 11 10 11 13 15 17 20 21 22 23 26 31 34 38 44 48 50 53
17 15 7 5 3 4 9 11 6 5 3 4 4 2 2 3 11 33 33 11 0 4 8 11 12 12 9 8 8 7 6 8 9 11 12 12 13 14 15 16 18 20 23 27 32 36 41 46 49 53 55 57 57 57
15 11 7 6 4 9 7 12 4 3 3 4 6 5 3 5 6 19 37 30 9 3 6 6 6 6 7 7 7 8 11 13 16 17 16 14 12 14 18 22 27 33 39 44 50 55 58 61 63 63 64 64 61 59
9 10 7 7 3 4 14 15 4 3 5 4 6 6 7 6 7 22 30 34 24 16 10 9 8 8 8 9 10 10 10 11 15 20 25 29 34 38 44 48 52 56 60 62 63 62 61 59 59 58 58 58 58 56
Wind_Direction_500mb
240 235 237 239 233 231 236 239 236 230 233 238 246 245 238 225 222 223 228 227 209 216 237 205 204 169 173 190 179 145 132 176 181 209 212 218 234 219 247 251 259 247 249 220 223 261 270 87 131 226 323 212 264 299
246 247 249 242 241 242 240 231 236 245 248 248 238 237 243 236 229 234 234 230 221 224 245 214 232 233 229 235 210 174 196 151 187 201 203 216 202 216 216 244 221 242 236 255 231 253 258 195 249 263 276 277 288 290
246 248 248 251 251 243 242 242 242 238 239 240 240 233 236 238 235 227 232 228 207 230 249 245 238 245 234 227 223 206 223 216 212 210 204 220 234 210 219 226 252 254 250 247 256 250 258 268 271 272 278 278 283 286
243 246 246 245 247 245 250 253 243 242 241 240 239 234 237 242 231 223 228 229 235 232 237 247 237 230 242 242 233 227 238 235 234 224 227 228 227 215 232 239 245 245 252 240 252 258 268 266 267 270 274 279 282 284
247 249 249 249 252 253 251 249 252 251 244 244 246 241 237 237 235 229 230 231 236 209 253 235 246 246 250 245 243 239 233 236 214 204 212 222 234 241 227 245 246 240 242 246 252 260 263 272 279 281 284 283 280 274
251 247 246 248 251 252 254 254 250 251 250 249 246 247 242 228 231 228 229 235 233 212 218 216 256 247 242 239 233 228 229 229 222 217 224 239 238 209 216 233 240 249 252 246 256 262 264 268 279 283 283 278 266 265
250 251 252 252 254 256 250 248 249 248 248 245 246 244 244 243 229 221 197 209 226 219 222 216 227 238 235 213 213 224 227 218 217 230 228 237 232 222 231 241 245 249 254 255 254 261 265 266 274 279 274 269 260 259
250 252 255 257 257 254 254 246 245 246 245 243 237 245 245 238 235 234 242 241 194 194 207 210 185 225 211 176 197 203 207 213 217 228 236 239 247 227 242 242 247 253 257 262 264 261 262 271 269 269 263 259 257 252
256 258 254 257 255 253 251 246 242 241 241 239 237 236 239 232 233 222 230 234 233 202 207 193 189 211 183 184 184 174 195 219 215 227 231 227 232 227 231 240 240 248 256 264 269 267 266 261 264 264 259 252 249 255
248 263 259 244 248 248 249 248 243 238 234 231 228 222 220 218 229 223 207 198 197 209 214 204 195 195 170 175 185 179 191 229 227 224 223 225 239 240 247 251 258 262 263 262 261 263 265 264 259 255 252 248 248 252
258 256 250 246 243 242 243 243 243 238 227 222 210 217 213 190 182 194 213 196 181 189 193 191 196 159 196 165 181 206 196 206 232 227 205 219 234 238 249 254 254 254 256 258 260 262 264 266 258 248 250 254 259 263
257 254 250 248 248 246 241 237 233 227 225 222 227 198 186 187 197 215 189 182 209 214 160 159 176 195 167 167 168 175 216 196 234 136 230 244 250 251 242 230 232 240 249 256 258 259 259 257 256 255 257 261 267 272
254 256 251 249 247 239 239 237 232 229 229 232 228 212 193 170 204 203 182 182 192 157 164 149 149 159 151 184 185 181 203 213 117 206 225 236 250 232 231 227 228 232 240 246 247 248 250 253 257 261 264 270 273 277
254 263 257 254 247 242 240 238 225 220 216 204 216 193 206 191 202 185 227 228 186 179 169 176 142 162 164 178 183 212 149 144 209 221 243 253 239 233 217 215 222 228 234 238 240 240 245 251 259 267 273 276 280 285
283 276 271 259 247 240 232 227 223 217 233 218 202 217 208 176 156 171 194 189 191 185 150 141 141 154 157 194 193 132 176 214 216 234 236 235 218 208 206 210 217 219 218 221 232 242 253 264 273 278 285 290 292 293
313 292 277 263 253 232 225 221 220 216 230 221 284 77 30 179 161 203 198 189 192 166 162 147 140 185 193 188 189 192 189 212 226 209 192 189 185 187 196 197 199 201 202 214 240 260 271 281 291 296 296 296 296 298
299 260 277 260 235 206 207 209 208 208 238 172 144 142 160 314 291 159 173 177 165 172 169 154 191 185 125 198 203 189 220 239 114 184 187 196 196 189 185 183 189 199 215 239 260 277 288 296 304 310 313 312 308 307
289 293 268 234 232 172 182 197 172 144 81 25 236 86 145 189 332 241 192 171 158 205 181 177 123 190 192 189 207 206 145 175 165 165 181 177 175 175 182 189 197 211 230 251 270 289 305 313 317 320 321 319 319 322
349 302 311 195 208 185 160 176 173 119 89 105 109 141 109 151 174 184 190 190 187 170 168 161 205 195 205 227 6 85 181 183 174 164 169 172 175 179 191 205 213 218 229 245 269 291 314 329 333 331 329 328 328 324
237 258 229 203 187 164 108 70 115 124 127 139 126 100 94 308 100 112 155 171 156 178 190 223 229 34 44 159 213 186 177 173 164 144 163 183 186 192 197 203 211 211 203 194 174 11 0 350 345 343 342 338 333 330
237 230 247 193 147 107 98 81 61 63 97 94 101 110 127 109 73 78 65 175 217 266 225 285 161 159 147 128 136 141 144 151 150 144 167 190 198 199 199 196 193 188 180 172 166 353 341 343 346 353 353 348 343 342
187 179 157 129 89 81 81 63 97 103 93 103 95 59 42 66 56 48 138 188 26 5 358 314 163 147 148 145 144 147 149 152 163 163 179 194 187 194 194 188 181 181 187 206 250 278 299 317 330 342 349 349 351 350
138 127 82 64 83 58 51 73 90 45 95 106 117 118 70 68 352 15 230 46 356 332 286 235 183 173 167 158 158 165 172 175 154 151 160 168 175 175 176 178 184 196 217 241 260 271 286 309 326 345 355 357 357 354
99 65 41 45 37 70 60 45 51 73 83 69 120 140 98 5 345 228 118 46 336 323 254 202 180 173 174 173 177 169 159 157 159 157 155 154 159 165 175 192 211 229 238 254 261 262 277 309 339 349 349 348 346 345
90 14 22 22 22 29 47 33 19 47 70 21 82 83 55 344 78 56 25 19 355 342 230 186 179 169 168 168 168 162 155 144 139 145 153 159 168 183 199 215 231 242 250 246 245 242 264 306 324 331 334 335 335 336
69 7 33 357 12 21 13 76 43 44 17 95 46 5 347 307 190 71 5 334 345 352 328 236 185 103 132 154 155 146 142 141 143 150 165 183 203 221 240 247 260 263 255 237 230 241 275 301 312 319 324 325 325 324
59 1 7 28 17 355 77 77 119 354 57 46 21 18 38 70 66 1 348 359 351 351 172 162 143 130 136 141 140 141 142 147 157 171 186 206 234 254 262 265 269 258 251 240 242 265 287 300 307 312 315 317 319 317
74 27 30 340 18 27 85 28 30 41 27 12 318 40 83 50 122 334 345 342 354 115 151 154 144 141 143 144 146 152 160 168 169 174 282 279 274 276 272 263 256 253 253 258 270 283 294 300 306 309 311 312 315 312
35 354 351 350 24 56 48 32 47 30 357 0 331 54 46 41 9 355 349 354 38 141 155 162 157 153 158 167 170 172 169 173 174 267 299 312 306 299 284 280 282 284 285 287 291 297 300 302 307 308 310 313 314 313
1 357 344 9 23 40 10 15 350 335 342 347 327 351 47 56 40 29 6 348 148 171 175 178 183 183 177 185 196 205 230 263 283 294 302 305 300 294 288 291 294 296 299 302 303 302 300 301 302 302 303 304 306 307
345 348 341 16 59 18 346 344 356 19 42 36 40 74 120 116 54 34 27 26 233 189 188 194 199 208 220 235 247 257 283 299 304 302 299 298 298 298 293 292 294 296 298 300 302 303 303 302 301 301 300 301 302 303
346 12 351 355 0 353 7 12 28 68 49 53 24 34 46 60 63 25 12 17 25 198 197 205 224 246 261 272 282 292 303 311 308 307 307 303 296 292 291 292 293 294 295 297 298 299 299 299 298 298 298 298 299 299
332 346 339 323 321 36 357 350 19 105 70 72 41 46 49 68 76 21 14 20 34 53 72 72 59 44 33 29 31 33 29 2 337 320 311 303 299 296 295 293 292 292 293 293 294 295 296 297 297 297 297 298 299 299
Wind_Speed_850mb
52 52 49 47 50 49 48 48 44 48 51 47 51 51 46 54 49 49 48 41 38 16 19 33 27 17 20 27 10 17 12 6 11 12 10 10 11 14 12 21 16 17 14 12 9 12 24 8 11 12 6 5 15 33
47 37 42 55 51 50 49 52 53 55 63 60 59 58 59 58 50 51 54 61 56 36 17 33 50 40 40 29 23 33 6 12 21 11 10 8 8 8 15 14 16 14 19 13 15 12 8 24 26 34 37 42 53 54
58 57 53 49 42 53 55 57 58 60 57 58 61 62 58 67 65 59 62 41 36 46 42 55 56 63 57 55 45 25 20 24 17 23 12 10 17 12 15 20 28 31 43 24 23 31 51 60 63 63 57 58 59 54
51 52 50 51 56 59 51 50 55 56 57 60 57 60 61 58 57 63 64 62 62 22 11 24 31 46 51 55 66 65 55 30 38 31 25 13 13 23 20 23 22 28 12 23 27 43 52 59 61 63 60 57 54 43
56 56 55 53 53 51 50 54 57 54 57 56 59 66 64 64 63 60 60 73 74 55 7 20 43 49 35 37 45 55 64 59 26 17 12 13 26 15 19 17 21 47 41 25 29 52 44 52 57 51 46 55 53 49
51 52 53 52 51 52 54 54 54 56 59 56 56 56 59 62 62 51 41 71 72 78 17 7 19 32 40 45 49 47 57 62 47 23 15 23 45 23 10 19 53 71 63 63 54 71 70 74 68 61 55 53 48 53
49 50 51 52 55 56 60 57 57 58 56 58 55 55 52 50 53 60 16 18 39 73 17 6 8 23 30 27 28 41 47 39 37 24 21 37 34 38 11 31 47 63 59 60 64 65 62 68 53 46 46 47 45 43
37 37 40 45 48 51 49 55 55 55 55 54 53 52 52 54 55 68 75 61 18 59 20 7 7 6 20 15 17 26 23 33 24 20 19 21 25 27 15 34 63 70 74 64 63 58 57 58 52 55 47 45 43 41
38 40 44 47 45 44 43 45 48 48 48 46 49 48 48 57 50 61 67 63 67 42 10 13 14 12 22 18 17 17 18 9 15 13 21 19 15 16 25 46 56 65 58 59 54 56 48 45 45 47 43 41 40 39
40 42 45 49 50 43 42 40 40 42 41 39 39 30 21 44 56 33 28 36 54 36 28 11 37 14 29 25 20 15 15 8 9 15 18 11 24 56 70 66 49 50 50 48 40 35 35 39 39 40 37 35 33 33
44 43 45 38 40 43 44 42 40 34 31 40 24 27 15 20 46 26 18 19 18 11 23 22 39 14 25 10 11 22 7 8 8 10 13 10 13 32 61 58 61 63 54 45 40 38 35 33 27 30 30 30 32 34
34 33 35 37 36 37 36 36 41 43 45 31 21 31 32 25 16 13 11 10 11 12 17 15 26 46 20 15 9 15 8 10 12 4 8 8 15 35 32 42 48 46 44 39 35 33 30 28 26 26 26 29 32 34
32 33 36 39 41 41 41 43 42 44 45 47 27 16 14 18 16 13 21 10 12 12 20 20 11 26 14 18 9 10 16 11 8 7 7 8 7 23 33 37 34 31 30 30 28 27 25 24 22 24 25 29 34 38
17 19 31 38 43 47 44 43 49 42 42 24 15 18 14 9 14 11 12 16 14 24 41 41 18 10 14 13 8 9 6 8 10 10 15 14 32 32 29 27 28 25 23 21 20 20 20 21 22 24 28 33 38 40
20 26 29 32 37 40 42 42 42 51 28 19 17 14 14 6 4 10 14 8 19 32 47 16 9 16 7 9 10 8 11 11 13 12 15 9 21 25 26 24 21 19 18 17 17 17 19 22 25 25 29 34 38 41
23 22 22 24 30 38 39 40 39 52 25 12 5 1 6 6 7 5 15 12 26 31 30 12 8 9 12 9 15 14 12 14 12 7 8 14 20 22 21 20 20 19 17 14 15 18 20 23 25 28 28 32 34 36
23 13 24 23 18 32 30 35 32 21 9 10 5 7 7 9 8 12 17 11 32 28 7 7 15 14 10 8 11 10 12 16 5 9 13 18 23 25 25 23 21 18 14 13 14 15 18 20 23 26 27 26 27 27
12 17 20 17 20 35 27 22 2 6 5 5 2 4 2 1 3 0 8 19 26 12 9 5 7 10 10 11 8 7 6 9 8 11 15 20 22 23 21 19 18 14 11 10 10 12 13 16 18 20 21 21 19 17
16 13 5 19 21 14 13 8 6 6 4 2 3 5 3 4 7 11 12 28 15 15 11 13 7 6 6 1 5 3 9 14 16 19 22 23 23 21 17 14 12 10 8 6 5 6 8 9 12 15 16 14 13 13
17 18 17 17 22 11 8 6 5 6 5 6 7 7 7 1 1 4 10 16 11 6 5 5 2 4 4 3 3 4 11 19 23 28 21 22 21 18 16 14 11 9 7 5 2 2 6 9 11 12 12 11 11 10
18 20 13 15 7 10 11 6 9 7 6 7 5 5 3 5 3 5 4 5 4 3 2 1 5 4 6 8 11 16 23 26 22 14 13 22 23 20 16 14 13 11 9 6 3 1 4 7 9 10 10 10 10 10
13 14 10 7 8 9 13 11 9 7 6 7 5 5 5 3 4 4 2 3 3 3 3 2 6 15 16 15 15 17 19 14 11 7 6 9 22 21 20 18 16 12 8 5 4 5 6 7 8 9 10 11 12 12
18 12 8 9 8 10 6 7 4 5 3 4 5 4 3 2 2 3 1 1 1 4 4 4 9 12 10 11 10 11 11 10 9 9 11 14 16 19 19 16 13 9 7 6 6 6 6 6 6 8 10 12 14 16
14 9 12 11 15 5 4 7 6 6 5 3 3 5 3 4 8 2 2 4 7 8 4 7 10 8 8 9 9 9 9 9 12 15 18 20 19 17 13 10 8 8 9 7 6 5 3 3 5 7 10 13 16 18
7 18 13 11 13 5 7 5 6 4 4 3 2 2 3 8 0 2 3 5 11 4 3 7 9 6 6 7 8 10 14 16 18 19 20 18 14 11 10 9 8 8 8 8 6 4 3 4 7 10 14 17 20 21
15 17 11 8 8 6 5 3 4 3 2 3 5 3 4 1 1 2 4 15 13 11 3 1 4 2 4 9 13 18 21 22 20 15 12 11 10 10 10 11 10 10 9 9 9 7 7 9 12 16 18 20 23 26
10 9 12 13 5 3 3 3 1 1 5 4 3 2 2 5 3 3 11 14 10 7 2 7 10 10 14 21 23 22 20 16 11 8 7 6 7 9 11 11 10 10 9 8 9 10 12 15 19 22 24 23 24 28
8 16 6 16 7 9 3 4 6 6 4 5 3 5 4 3 1 6 7 10 9 3 11 18 20 22 23 20 17 13 11 10 8 3 2 4 4 6 8 9 9 9 9 9 12 15 18 21 24 27 29 31 30 31
9 21 11 7 4 8 7 6 3 4 5 4 3 3 3 4 7 9 9 8 3 7 13 17 18 18 17 14 11 9 7 5 2 1 3 4 4 5 4 3 4 7 9 12 15 19 23 26 28 31 34 37 39 42
12 24 8 7 4 6 5 6 4 7 4 4 3 3 5 9 21 18 9 3 2 8 14 16 17 16 11 8 7 6 4 5 7 9 12 11 11 10 11 13 15 17 20 21 22 23 26 31 34 38 44 48 50 53
17 15 7 5 3 4 9 11 6 5 3 4 4 2 2 3 11 33 33 11 0 4 8 11 12 12 9 8 8 7 6 8 9 11 12 12 13 14 15 16 18 20 23 27 32 36 41 46 49 53 55 57 57 57
15 11 7 6 4 9 7 12 4 3 3 4 6 5 3 5 6 19 37 30 9 3 6 6 6 6 7 7 7 8 11 13 16 17 16 14 12 14 18 22 27 33 39 44 50 55 58 61 63 63 64 64 61 59
9 10 7 7 3 4 14 15 4 3 5 4 6 6 7 6 7 22 30 34 24 16 10 9 8 8 8 9 10 10 10 11 15 20 25 29 34 38 44 48 52 56 60 62 63 62 61 59 59 58 58 58 58 56
Wind_Direction_850mb
240 235 237 239 233 231 236 239 236 230 233 238 246 245 238 225 222 223 228 227 209 216 237 205 204 169 173 190 179 145 132 176 181 209 212 218 234 219 247 251 259 247 249 220 223 261 270 87 131 226 323 212 264 299
246 247 249 242 241 242 240 231 236 245 248 248 238 237 243 236 229 234 234 230 221 224 245 214 232 233 229 235 210 174 196 151 187 201 203 216 202 216 216 244 221 242 236 255 231 253 258 195 249 263 276 277 288 290
246 248 248 251 251 243 242 242 242 238 239 240 240 233 236 238 235 227 232 228 207 230 249 245 238 245 234 227 223 206 223 216 212 210 204 220 234 210 219 226 252 254 250 247 256 250 258 268 271 272 278 278 283 286
243 246 246 245 247 245 250 253 243 242 241 240 239 234 237 242 231 223 228 229 235 232 237 247 237 230 242 242 233 227 238 235 234 224 227 228 227 215 232 239 245 245 252 240 252 258 268 266 267 270 274 279 282 284
247 249 249 249 252 253 251 249 252 251 244 244 246 241 237 237 235 229 230 231 236 209 253 235 246 246 250 245 243 239 233 236 214 204 212 222 234 241 227 245 246 240 242 246 252 260 263 272 279 281 284 283 280 274
251 247 246 248 251 252 254 254 250 251 250 249 246 247 242 228 231 228 229 235 233 212 218 216 256 247 242 239 233 228 229 229 222 217 224 239 238 209 216 233 240 249 252 246 256 262 264 268 279 283 283 278 266 265
250 251 252 252 254 256 250 248 249 248 248 245 246 244 244 243 229 221 197 209 226 219 222 216 227 238 235 213 213 224 227 218 217 230 228 237 232 222 231 241 245 249 254 255 254 261 265 266 274 279 274 269 260 259
250 252 255 257 257 254 254 246 245 246 245 243 237 245 245 238 235 234 242 241 194 194 207 210 185 225 211 176 197 203 207 213 217 228 236 239 247 227 242 242 247 253 257 262 264 261 262 271 269 269 263 259 257 252
256 258 254 257 255 253 251 246 242 241 241 239 237 236 239 232 233 222 230 234 233 202 207 193 189 211 183 184 184 174 195 219 215 227 231 227 232 227 231 240 240 248 256 264 269 267 266 261 264 264 259 252 249 255
248 263 259 244 248 248 249 248 243 238 234 231 228 222 220 218 229 223 207 198 197 209 214 204 195 195 170 175 185 179 191 229 227 224 223 225 239 240 247 251 258 262 263 262 261 263 265 264 259 255 252 248 248 252
258 256 250 246 243 242 243 243 243 238 227 222 210 217 213 190 182 194 213 196 181 189 193 191 196 159 196 165 181 206 196 206 232 227 205 219 234 238 249 254 254 254 256 258 260 262 264 266 258 248 250 254 259 263
257 254 250 248 248 246 241 237 233 227 225 222 227 198 186 187 197 215 189 182 209 214 160 159 176 195 167 167 168 175 216 196 234 136 230 244 250 251 242 230 232 240 249 256 258 259 259 257 256 255 257 261 267 272
254 256 251 249 247 239 239 237 232 229 229 232 228 212 193 170 204 203 182 182 192 157 164 149 149 159 151 184 185 181 203 213 117 206 225 236 250 232 231 227 228 232 240 246 247 248 250 253 257 261 264 270 273 277
254 263 257 254 247 242 240 238 225 220 216 204 216 193 206 191 202 185 227 228 186 179 169 176 142 162 164 178 183 212 149 144 209 221 243 253 239 233 217 215 222 228 234 238 240 240 245 251 259 267 273 276 280 285
283 276 271 259 247 240 232 227 223 217 233 218 202 217 208 176 156 171 194 189 191 185 150 141 141 154 157 194 193 132 176 214 216 234 236 235 218 208 206 210 217 219 218 221 232 242 253 264 273 278 285 290 292 293
313 292 277 263 253 232 225 221 220 216 230 221 284 77 30 179 161 203 198 189 192 166 162 147 140 185 193 188 189 192 189 212 226 209 192 189 185 187 196 197 199 201 202 214 240 260 271 281 291 296 296 296 296 298
299 260 277 260 235 206 207 209 208 208 238 172 144 142 160 314 291 159 173 177 165 172 169 154 191 185 125 198 203 189 220 239 114 184 187 196 196 189 185 183 189 199 215 239 260 277 288 296 304 310 313 312 308 307
289 293 268 234 232 172 182 197 172 144 81 25 236 86 145 189 332 241 192 171 158 205 181 177 123 190 192 189 207 206 145 175 165 165 181 177 175 175 182 189 197 211 230 251 270 289 305 313 317 320 321 319 319 322
349 302 311 195 208 185 160 176 173 119 89 105 109 141 109 151 174 184 190 190 187 170 168 161 205 195 205 227 6 85 181 183 174 164 169 172 175 179 191 205 213 218 229 245 269 291 314 329 333 331 329 328 328 324
237 258 229 203 187 164 108 70 115 124 127 139 126 100 94 308 100 112 155 171 156 178 190 223 229 34 44 159 213 186 177 173 164 144 163 183 186 192 197 203 211 211 203 194 174 11 0 350 345 343 342 338 333 330
237 230 247 193 147 107 98 81 61 63 97 94 101 110 127 109 73 78 65 175 217 266 225 285 161 159 147 128 136 141 144 151 150 144 167 190 198 199 199 196 193 188 180 172 166 353 341 343 346 353 353 348 343 342
187 179 157 129 89 81 81 63 97 103 93 103 95 59 42 66 56 48 138 188 26 5 358 314 163 147 148 145 144 147 149 152 163 163 179 194 187 194 194 188 181 181 187 206 250 278 299 317 330 342 349 349 351 350
138 127 82 64 83 58 51 73 90 45 95 106 117 118 70 68 352 15 230 46 356 332 286 235 183 173 167 158 158 165 172 175 154 151 160 168 175 175 176 178 184 196 217 241 260 271 286 309 326 345 355 357 357 354
99 65 41 45 37 70 60 45 51 73 83 69 120 140 98 5 345 228 118 46 336 323 254 202 180 173 174 173 177 169 159 157 159 157 155 154 159 165 175 192 211 229 238 254 261 262 277 309 339 349 349 348 346 345
90 14 22 22 22 29 47 33 19 47 70 21 82 83 55 344 78 56 25 19 355 342 230 186 179 169 168 168 168 162 155 144 139 145 153 159 168 183 199 215 231 242 250 246 245 242 264 306 324 331 334 335 335 336
69 7 33 357 12 21 13 76 43 44 17 95 46 5 347 307 190 71 5 334 345 352 328 236 185 103 132 154 155 146 142 141 143 150 165 183 203 221 240 247 260 263 255 237 230 241 275 301 312 319 324 325 325 324
59 1 7 28 17 355 77 77 119 354 57 46 21 18 38 70 66 1 348 359 351 351 172 162 143 130 136 141 140 141 142 147 157 171 186 206 234 254 262 265 269 258 251 240 242 265 287 300 307 312 315 317 319 317
74 27 30 340 18 27 85 28 30 41 27 12 318 40 83 50 122 334 345 342 354 115 151 154 144 141 143 144 146 152 160 168 169 174 282 279 274 276 272 263 256 253 253 258 270 283 294 300 306 309 311 312 315 312
35 354 351 350 24 56 48 32 47 30 357 0 331 54 46 41 9 355 349 354 38 141 155 162 157 153 158 167 170 172 169 173 174 267 299 312 306 299 284 280 282 284 285 287 291 297 300 302 307 308 310 313 314 313
1 357 344 9 23 40 10 15 350 335 342 347 327 351 47 56 40 29 6 348 148 171 175 178 183 183 177 185 196 205 230 263 283 294 302 305 300 294 288 291 294 296 299 302 303 302 300 301 302 302 303 304 306 307
345 348 341 16 59 18 346 344 356 19 42 36 40 74 120 116 54 34 27 26 233 189 188 194 199 208 220 235 247 257 283 299 304 302 299 298 298 298 293 292 294 296 298 300 302 303 303 302 301 301 300 301 302 303
346 12 351 355 0 353 7 12 28 68 49 53 24 34 46 60 63 25 12 17 25 198 197 205 224 246 261 272 282 292 303 311 308 307 307 303 296 292 291 292 293 294 295 297 298 299 299 299 298 298 298 298 299 299
332 346 339 323 321 36 357 350 19 105 70 72 41 46 49 68 76 21 14 20 34 53 72 72 59 44 33 29 31 33 29 2 337 320 311 303 299 296 295 293 292 292 293 293 294 295 296 297 297 297 297 298 299 299